STARLINK-1946 (46776 NORAD) Tracking and Keplerian Element Data

This shows tracking and keplerian element data for the satellite.

Feedback or suggestion? Click here.




ElementValue
Catalog46776
NameSTARLINK-1946
Epoch Orbit1376
Epoch Day21.16668981
Epoch Year2021
RAAN107.183
Inclination53.0553
Eccentricity0.0001039
Argument of Perigee73.0587
Mean Anonmoly155.9584
Mean Motion15.06389208
Decay Rate0.00033177
L11 46776U 20074AP 21021.16668981 .00033177 00000-0 22364-2 0 9994
L22 46776 53.0553 107.1830 0001039 73.0587 155.9584 15.06389208 13762

Live tracking and technical data element details for STARLINK-1946 (NORAD 46776). STARLINK-1946 can be tracked NOW for your location showing map with azimuth and elevation plus other details from your city location.

Track the satellite on the map from your city or location and see movement details for azimuth, elevation, latitude, longitude, range, height, and movement on the map or in text.







IsCatalogInMostPopularTable: catalog: 46776, numindb: 33
Update: records affected: 1



GetName: 46776 STARLINK-1946

Hit Count: updated at: Fri, 22 Jan 2021 17:57:49 GMT